Overview Statistics Trail Chart Weather Telemetry Raw packets
 

This is the latest recevied weather packets stored in our database for station/object IW1RCO-13. If no packets are shown the sender has not sent any weather packets the latest 10 day(s).

<< 33 34 35 36 37 38 39 >>
Time Temp. Humidity Pressure Rain* Wind** Luminosity Snow
1788408871 20.56° C 78% 1017.9 hPa - - - -
1788408567 20.56° C 79% 1019.2 hPa - - - -
1788408271 20° C 79% 1018.1 hPa - - - -
1788407967 20° C 81% 1018.8 hPa - - - -
1788407670 20° C 82% 1018.1 hPa - - - -
1788407367 20° C 80% 1018.2 hPa - - - -
1788407070 20° C 81% 1019.5 hPa - - - -
1788406766 20° C 80% 1018.8 hPa - - - -
1788406470 20° C 80% 1018.7 hPa - - - -
1788406166 20° C 80% 1018.8 hPa - - - -
1788405870 20° C 81% 1019.2 hPa - - - -
1788405573 19.44° C 82% 1018.9 hPa - - - -
1788405269 19.44° C 81% 1019.1 hPa - - - -
1788403172 20.56° C 78% 1019.1 hPa - - - -
1788402868 20.56° C 78% 1018.8 hPa - - - -
1788402571 21.11° C 77% 1018.3 hPa - - - -
1788402268 21.11° C 77% 1018.7 hPa - - - -
1788401971 21.11° C 77% 1019.2 hPa - - - -
1788401668 20.56° C 78% 1018.9 hPa - - - -
1788401371 20.56° C 79% 1019.2 hPa - - - -
1788401067 20.56° C 79% 1019.2 hPa - - - -
1788400771 20.56° C 80% 1019.3 hPa - - - -
1788400467 20.56° C 79% 1019.2 hPa - - - -
1788400170 20.56° C 79% 1019.2 hPa - - - -
1788399867 20.56° C 78% 1019.5 hPa - - - -

* Rain since midnight (hover to see other rain measurements)
** Current wind speed in m/s (hover to see current wind gust speed)